Home > Weather > Galveston > Past weeks

Flag for USA Weather for the Past 2 Weeks in Galveston, Texas, USA

Now
75 °F

Sunny.


Feels Like: 78 °F
Forecast: 64 / 75 °F
Wind: 15 mph from North

Location: Scholes Field

Current Time: May 3, 2016 at 6:05:45 PM

Latest Report: May 3, 2016 at 4:52 PM


Visibility: 10 mi

Pressure: 29.96 "Hg

Humidity: 48%

Dew Point: 54 °F

Location of GalvestonLocation

Historic Weather in Galveston — Graph

°F

Galveston Temperature Yesterday

Maximum temperature yesterday: 74 °F (at 3:52 AM)
Minimum temperature yesterday: 65 °F (at 12:59 PM)
Average temperature yesterday: 70 °F

High & Low Weather Summary for the Past Weeks

 TemperatureHumidityPressure
High81 °F (Apr 22, 3:52 PM)100% (Apr 20, 1:01 AM)30.11 "Hg (Apr 20, 1:01 AM)
Low64 °F (May 3, 6:52 AM)44% (Apr 23, 1:52 PM)29.63 "Hg (Apr 30, 4:52 AM)
Average74 °F88%29.89 "Hg
* Reported Apr 18 3:52 PM — May 3 3:52 PM, Galveston, Weather by CustomWeather, © 2016

Note: Actual official high and low records may vary slightly from our data, if they occured in-between our weather recording intervals... More about our weather records

Advertising

Galveston Weather History for the Previous 24 Hours

Scroll right to see more
 ConditionsComfort  
Time TempWeatherWind HumidityBarometerVisibility
3:52 PM
Tue, May 3
74 °FSunny.15 mph57%29.97 "Hg10 mi
2:52 PM73 °FSunny.15 mph62%29.99 "Hg10 mi
1:52 PM71 °FSunny.15 mph66%30.01 "Hg10 mi
12:52 PM70 °FSunny.14 mph71%30.03 "Hg10 mi
11:52 AM69 °FMild.13 mph73%30.05 "Hg10 mi
10:52 AM68 °FPartly sunny.15 mph76%30.05 "Hg10 mi
9:52 AM66 °FScattered clouds.16 mph81%30.05 "Hg10 mi
8:52 AM65 °FPartly sunny.15 mph85%30.05 "Hg10 mi
7:52 AM64 °FMore clouds than sun.20 mph84%30.03 "Hg10 mi
6:52 AM64 °FMostly cloudy.15 mph84%30.02 "Hg10 mi
5:52 AM65 °FMostly cloudy.18 mph81%30.00 "Hg10 mi
4:52 AM65 °FOvercast.18 mph85%29.99 "Hg10 mi
3:52 AM66 °FOvercast.21 mph84%30.00 "Hg10 mi
2:52 AM67 °FOvercast.17 mph85%29.99 "Hg10 mi
1:52 AM67 °FOvercast.14 mph87%30.01 "Hg10 mi
12:52 AM68 °FOvercast.18 mph84%30.02 "Hg10 mi
11:52 PM
Mon, May 2
68 °FMostly cloudy.16 mph84%30.02 "Hg10 mi
11:04 PM69 °FMostly cloudy.18 mph81%30.02 "Hg10 mi
10:52 PM69 °FPassing clouds.17 mph81%30.02 "Hg10 mi
9:52 PM69 °FOvercast.17 mph84%30.02 "Hg10 mi
8:52 PM70 °FOvercast.22 mph84%30.00 "Hg10 mi
7:52 PM71 °FSunny.16 mph81%29.96 "Hg10 mi
6:52 PM71 °FPassing clouds.22 mph81%29.96 "Hg10 mi
Weather by CustomWeather, © 2016

See weather overviewHow to use our weather pages